Weather History for KMVY - October, 2014

Change the Weather History Date:

Thursday, October 16, 2014

  Actual Average Record
Temperature  
Mean Temperature 66 °F -  
Max Temperature 71 °F 64 °F 76 °F (1954)
Min Temperature 61 °F 46 °F 27 °F (2006)
Cooling Degree Days 1    
Growing Degree Days 16 (Base 50)    
Moisture  
Dew Point 66 °F    
Average Humidity 96    
Maximum Humidity 100    
Minimum Humidity 88    
Precipitation  
Precipitation 0.76 in - - ()
Sea Level Pressure  
Sea Level Pressure 29.84 in    
Wind  
Wind Speed 14 mph (SSE)    
Max Wind Speed 20 mph    
Max Gust Speed 29 mph    
Visibility 7 miles    
Events Rain , Thunderstorm    
Averages and records for this station are not official NWS values.
T = Trace of Precipitation, MM = Missing Value Source: NWS Daily Summary

Daily Weather History Graph

Daily Weather History Graph

Search for Another Location

Airport or City:

Trip Planner

Search our weather history database for the weather conditions in past years. The results will help you decide how hot, cold, wet, or windy it might be!

Date:

Astronomy

Oct. 16, 2014 Rise Set
Actual Time 6:55 AM EDT 5:59 PM EDT
Civil Twilight 6:27 AM EDT 6:27 PM EDT
Nautical Twilight 5:55 AM EDT 6:59 PM EDT
Astronomical Twilight 5:23 AM EDT 7:31 PM EDT
Moon No Moon Rise 2:13 PM EDT (10/16)
Length of Visible Light 12h 00m
Length of Day
11h 04m
Last Quarter, 42% of the Moon is Illuminated
Oct 16
Last Quarter
Oct 23
New
Oct 30
First Quarter
Nov 6
Full
Nov 14
Last Quarter

Hourly Weather History & Observations

Time (EDT) Temp. Dew Point Humidity Pressure Visibility Wind Dir Wind Speed Gust Speed Precip Events Conditions
12:17 AM 66.9 °F 66.0 °F 97% 29.99 in 10.0 mi SSE 15.0 mph - N/A   Partly Cloudy
12:30 AM 66.9 °F 66.0 °F 97% 29.98 in 10.0 mi SSE 12.7 mph - N/A   Mostly Cloudy
12:46 AM 66.9 °F 66.0 °F 97% 29.97 in 9.0 mi SSE 16.1 mph 24.2 mph N/A   Mostly Cloudy
12:53 AM 66.9 °F 66.9 °F 100% 29.97 in 10.0 mi SSE 13.8 mph 24.2 mph N/A   Mostly Cloudy
1:18 AM 66.9 °F 66.0 °F 97% 29.96 in 10.0 mi SSE 13.8 mph - N/A   Mostly Cloudy
1:53 AM 66.0 °F 64.9 °F 96% 29.96 in 10.0 mi SSE 11.5 mph - N/A   Mostly Cloudy
2:19 AM 66.0 °F 66.0 °F 100% 29.96 in 10.0 mi SSE 12.7 mph - N/A   Mostly Cloudy
2:35 AM 66.0 °F 64.9 °F 96% 29.96 in 9.0 mi SSE 15.0 mph - N/A   Mostly Cloudy
2:51 AM 66.2 °F 64.4 °F 94% 29.95 in 9.0 mi SSE 11.5 mph - N/A   Overcast
2:53 AM 66.0 °F 64.9 °F 96% 29.95 in 9.0 mi SSE 12.7 mph - N/A   Overcast
3:05 AM 66.0 °F 66.0 °F 100% 29.95 in 9.0 mi SSE 10.4 mph 19.6 mph N/A   Overcast
3:35 AM 66.0 °F 64.9 °F 96% 29.94 in 9.0 mi SSE 11.5 mph - N/A   Overcast
3:53 AM 66.0 °F 64.9 °F 96% 29.94 in 9.0 mi SSE 12.7 mph - N/A   Overcast
4:53 AM 66.0 °F 66.0 °F 100% 29.92 in 10.0 mi SSE 12.7 mph - N/A   Overcast
5:29 AM 66.0 °F 66.0 °F 100% 29.92 in 10.0 mi SSE 15.0 mph - N/A   Overcast
5:53 AM 66.9 °F 64.9 °F 93% 29.91 in 10.0 mi SSE 13.8 mph 20.7 mph 0.00 in   Overcast
6:53 AM 66.9 °F 64.9 °F 93% 29.91 in 10.0 mi SSE 15.0 mph - N/A   Overcast
7:19 AM 68.0 °F 66.9 °F 96% 29.91 in 10.0 mi SE 15.0 mph - N/A   Mostly Cloudy
7:36 AM 68.0 °F 66.9 °F 96% 29.91 in 9.0 mi SE 16.1 mph 24.2 mph N/A   Overcast
7:53 AM 68.0 °F 66.9 °F 96% 29.91 in 9.0 mi SE 17.3 mph 24.2 mph N/A   Overcast
8:11 AM 68.0 °F 66.0 °F 93% 29.91 in 9.0 mi SE 16.1 mph - N/A   Overcast
8:28 AM 68.0 °F 66.9 °F 96% 29.91 in 9.0 mi SSE 18.4 mph 26.5 mph N/A   Overcast
8:53 AM 69.1 °F 66.9 °F 93% 29.91 in 10.0 mi SSE 16.1 mph 26.5 mph N/A   Overcast
9:16 AM 70.0 °F 66.9 °F 90% 29.91 in 10.0 mi SE 19.6 mph 25.3 mph N/A   Mostly Cloudy
9:33 AM 69.1 °F 66.9 °F 93% 29.90 in 9.0 mi SE 18.4 mph 24.2 mph N/A   Mostly Cloudy
9:53 AM 70.0 °F 66.9 °F 90% 29.89 in 10.0 mi SSE 16.1 mph - N/A   Overcast
10:03 AM 69.1 °F 66.9 °F 93% 29.89 in 10.0 mi SE 15.0 mph 25.3 mph N/A   Overcast
10:16 AM 70.0 °F 66.9 °F 90% 29.89 in 10.0 mi SSE 18.4 mph 26.5 mph N/A   Overcast
10:53 AM 70.0 °F 66.9 °F 90% 29.88 in 10.0 mi SE 17.3 mph 28.8 mph N/A   Overcast
11:07 AM 70.0 °F 66.9 °F 90% 29.88 in 10.0 mi SE 18.4 mph 26.5 mph N/A   Overcast
11:53 AM 70.0 °F 66.9 °F 90% 29.86 in 9.0 mi SE 19.6 mph 26.5 mph N/A   Overcast
12:50 PM 69.8 °F 66.2 °F 88% 29.83 in 6.0 mi SE 15.0 mph 24.2 mph N/A   Overcast
12:53 PM 69.1 °F 66.9 °F 93% 29.83 in 6.0 mi SE 17.3 mph 25.3 mph N/A   Overcast
1:53 PM 69.1 °F 66.0 °F 90% 29.81 in 9.0 mi SE 18.4 mph 28.8 mph 0.00 in   Overcast
2:17 PM 68.0 °F 66.9 °F 96% 29.80 in 5.0 mi SSE 18.4 mph 26.5 mph 0.01 in Rain Light Rain
2:53 PM 66.9 °F 66.0 °F 97% 29.78 in 6.0 mi SE 16.1 mph 23.0 mph 0.02 in Rain Light Rain
3:05 PM 66.9 °F 66.0 °F 97% 29.78 in 7.0 mi SE 17.3 mph 24.2 mph 0.01 in Rain Light Rain
3:09 PM 66.9 °F 66.0 °F 97% 29.79 in 2.0 mi SSE 17.3 mph 24.2 mph 0.12 in Rain Light Rain
3:13 PM 66.9 °F 66.0 °F 97% 29.78 in 1.0 mi SE 17.3 mph 25.3 mph 0.19 in Rain Heavy Rain
3:25 PM 66.9 °F 66.9 °F 100% 29.78 in 2.0 mi SE 15.0 mph 26.5 mph 0.24 in Rain Rain
3:29 PM 66.9 °F 66.9 °F 100% 29.78 in 3.0 mi SSE 16.1 mph 25.3 mph 0.24 in Rain Light Rain
3:53 PM 68.0 °F 66.9 °F 96% 29.76 in 5.0 mi SSE 17.3 mph 25.3 mph 0.28 in Rain Light Rain
4:38 PM 66.9 °F 66.0 °F 97% 29.80 in 1.8 mi South 15.0 mph - 0.11 in Rain Heavy Rain
4:44 PM 66.0 °F 66.0 °F 100% 29.78 in 1.2 mi South 6.9 mph - 0.22 in Rain , Thunderstorm Heavy Rain
4:51 PM 66.2 °F 66.2 °F 100% 29.79 in 1.5 mi South 8.1 mph - 0.25 in Rain , Thunderstorm Rain
4:53 PM 66.0 °F 66.0 °F 100% 29.78 in 2.0 mi SSW 9.2 mph - 0.26 in Rain , Thunderstorm Rain
4:58 PM 66.0 °F 66.0 °F 100% 29.78 in 2.5 mi SSW 8.1 mph - 0.02 in Rain , Thunderstorm Rain
5:01 PM 66.0 °F 66.0 °F 100% 29.78 in 3.0 mi SSW 6.9 mph - 0.02 in Rain , Thunderstorm Rain
5:13 PM 66.0 °F 66.0 °F 100% 29.77 in 4.0 mi SSE 8.1 mph - 0.05 in Rain Rain
5:27 PM 66.0 °F 66.0 °F 100% 29.77 in 4.0 mi SE 6.9 mph - 0.07 in Rain Light Rain
5:35 PM 66.0 °F 66.0 °F 100% 29.77 in 5.0 mi SE 9.2 mph - 0.08 in Rain Light Rain
5:40 PM 66.0 °F 66.0 °F 100% 29.77 in 4.0 mi SSE 9.2 mph - 0.09 in Rain Rain
5:53 PM 66.0 °F 64.9 °F 96% 29.77 in 5.0 mi SSE 13.8 mph - 0.10 in Rain Light Rain
6:02 PM 64.9 °F 64.9 °F 100% 29.76 in 4.0 mi SSE 10.4 mph - 0.01 in Rain Light Rain
6:17 PM 66.0 °F 64.9 °F 96% 29.74 in 10.0 mi SE 8.1 mph - 0.01 in Rain Light Rain
6:25 PM 66.0 °F 64.9 °F 96% 29.74 in 10.0 mi SE 9.2 mph - 0.02 in Rain Light Rain
6:53 PM 66.0 °F 64.9 °F 96% 29.75 in 10.0 mi SSE 11.5 mph - 0.02 in   Mostly Cloudy
7:03 PM 66.0 °F 64.9 °F 96% 29.75 in 9.0 mi SSE 11.5 mph - 0.00 in Rain Light Rain
7:18 PM 64.9 °F 64.9 °F 100% 29.75 in 7.0 mi South 12.7 mph - 0.00 in Rain Light Rain
7:53 PM 64.9 °F 64.9 °F 100% 29.75 in 6.0 mi SW 16.1 mph 24.2 mph 0.01 in Rain Light Rain
8:11 PM 63.0 °F 63.0 °F 100% 29.75 in 10.0 mi SW 10.4 mph - 0.00 in   Overcast
8:35 PM 63.0 °F 62.1 °F 97% 29.77 in 8.0 mi SSW 9.2 mph - 0.01 in Rain Light Rain
8:46 PM 63.0 °F 62.1 °F 97% 29.77 in 6.0 mi SSW 8.1 mph - 0.03 in Rain Rain
8:53 PM 62.1 °F 62.1 °F 100% 29.75 in 5.0 mi SSW 3.5 mph - 0.04 in Rain Rain
9:53 PM 62.1 °F 60.1 °F 93% 29.75 in 10.0 mi South 5.8 mph - 0.03 in   Overcast
10:53 PM 62.1 °F 60.1 °F 93% 29.74 in 10.0 mi SW 8.1 mph - 0.00 in   Mostly Cloudy
11:53 PM 61.0 °F 60.1 °F 97% 29.71 in 10.0 mi SSW 3.5 mph - N/A   Partly Cloudy